EW1109 Weather Reports


time (UTC)temp
F
wind
direction
speed
knots
gust
knots
rain 1hr
in
rain 24hr
in
rain mn
in
humidity
%
barometer
mb
20260507231542 42 227 0.9 7.0 0.00 0.00 0.00 44 1011.2
20260507230036 42 238 0.0 7.8 0.00 0.00 0.00 47 1011.2
20260507224534 42 252 0.9 7.0 0.00 0.00 0.00 48 1011.3
20260507223028 42 214 2.6 10.4 0.00 0.00 0.00 51 1011.2
20260507221510 43 197 0.0 5.2 0.00 0.00 0.00 51 1011.2
20260507220006 45 259 1.7 7.8 0.00 0.00 0.00 50 1011.3
20260507214502 43 252 0.9 6.1 0.00 0.00 0.00 50 1011.3
20260507213106 43 227 0.0 6.1 0.00 0.00 0.00 49 1011.3
20260507211557 43 192 0.9 7.8 0.00 0.00 0.00 48 1011.3
20260507210049 42 180 0.0 6.1 0.00 0.00 0.00 45 1011.4
20260507204552 42 255 0.9 7.0 0.00 0.00 0.00 40 1011.5
20260507203041 42 251 0.0 6.1 0.00 0.00 0.00 32 1011.6
20260507201530 42 144 0.0 7.0 0.00 0.00 0.00 48 1011.7
20260507200019 43 224 0.9 8.7 0.00 0.00 0.00 51 1011.6
20260507194515 43 237 1.7 9.6 0.00 0.00 0.00 51 1011.6
20260507193010 44 234 1.7 7.0 0.00 0.00 0.00 50 1011.7
20260507191506 45 238 2.6 10.4 0.00 0.00 0.00 49 1011.8
20260507190006 46 227 2.6 10.4 0.00 0.00 0.00 49 1011.8
20260507184606 45 173 2.6 7.8 0.00 0.00 0.00 49 1011.7
20260507183054 45 242 2.6 9.6 0.00 0.00 0.00 48 1011.7
20260507181540 45 224 0.9 6.1 0.00 0.00 0.00 45 1011.9
20260507180033 44 232 0.9 6.1 0.00 0.00 0.00 49 1012.0
20260507174533 44 261 2.6 8.7 0.00 0.00 0.00 49 1012.1
20260507173024 43 250 1.7 10.4 0.00 0.00 0.00 47 1012.3
20260507171620 43 225 2.6 7.8 0.00 0.00 0.00 46 1012.3
20260507170015 43 244 2.6 9.6 0.00 0.00 0.00 47 1012.5
20260507164511 42 253 1.7 7.0 0.00 0.00 0.00 37 1012.7
20260507163007 41 169 2.6 7.8 0.00 0.00 0.00 11 1012.9
20260507161549 42 212 1.7 6.1 0.00 0.00 0.00 1 1013.1
20260507160048 41 251 1.7 6.1 0.00 0.00 0.00 100 1013.2
20260507154540 41 198 0.9 6.1 0.00 0.00 0.00 100 1013.3
20260507153036 40 214 1.7 6.1 0.00 0.00 0.00 100 1013.5
20260507151531 40 211 1.7 6.1 0.00 0.00 0.00 100 1013.4
20260507150026 40 247 1.7 6.1 0.00 0.00 0.00 100 1013.3
20260507144523 40 217 0.0 4.3 0.00 0.00 0.00 100 1013.2
20260507143032 40 263 0.0 5.2 0.00 0.00 0.00 100 1013.3
20260507141501 40 253 0.0 5.2 0.00 0.00 0.00 100 1013.2
20260507140056 40 251 0.0 4.3 0.00 0.00 0.00 100 1013.2
20260507134555 40 215 0.0 6.1 0.00 0.00 0.00 100 1013.3
20260507133049 41 236 0.0 5.2 0.00 0.00 0.00 100 1013.2
20260507131552 41 213 0.0 4.3 0.00 0.00 0.00 100 1013.1
20260507130043 41 215 0.0 4.3 0.00 0.00 0.00 100 1013.1
20260507124537 40 199 0.0 2.6 0.00 0.00 0.00 100 1013.1
20260507123031 38 297 0.0 0.0 0.00 0.00 0.00 100 1013.0
20260507121509 37 298 0.0 0.0 0.00 0.00 0.00 100 1013.0
20260507120005 36 298 0.0 0.0 0.00 0.00 0.00 100 1012.9
20260507114544 35 298 0.0 0.0 0.00 0.00 0.00 100 1012.8
20260507113039 34 298 0.0 0.0 0.00 0.00 0.00 100 1012.6
20260507111523 33 298 0.0 0.0 0.00 0.00 0.00 100 1012.5
20260507110021 32 298 0.0 0.0 0.00 0.00 0.00 100 1012.5
20260507104514 32 298 0.0 0.0 0.00 0.00 0.00 100 1012.5
20260507103011 31 298 0.0 0.0 0.00 0.00 0.00 100 1012.4
20260507101507 31 298 0.0 0.0 0.00 0.00 0.00 100 1012.5
20260507100001 31 298 0.0 0.0 0.00 0.00 0.00 100 1012.6
20260507094557 30 298 0.0 0.0 0.00 0.00 0.00 100 1012.6
20260507093053 30 298 0.0 0.0 0.00 0.00 0.00 100 1012.7
20260507091535 30 298 0.0 0.0 0.00 0.00 0.00 100 1012.8
20260507090026 31 298 0.0 0.0 0.00 0.00 0.00 100 1012.9
20260507084503 31 298 0.0 0.0 0.00 0.00 0.00 100 1013.0
20260507083059 31 298 0.0 0.0 0.00 0.00 0.00 100 1013.0
20260507081536 31 298 0.0 0.0 0.00 0.00 0.00 100 1013.2
20260507080032 32 298 0.0 0.0 0.00 0.00 0.00 100 1013.2
20260507074516 32 298 0.0 0.0 0.00 0.00 0.00 100 1013.2
20260507073013 33 298 0.0 0.0 0.00 0.00 0.00 100 1013.3
20260507071506 33 298 0.0 0.0 0.00 0.00 0.00 100 1013.3
20260507070004 33 298 0.0 0.0 0.00 0.00 0.00 100 1013.5
20260507064634 33 298 0.0 0.0 0.00 0.00 0.00 100 1013.7
20260507063105 33 298 0.0 0.0 0.00 0.00 0.00 100 1013.8
20260507061550 33 298 0.0 0.0 0.00 0.00 0.00 100 1014.0
20260507060107 32 298 0.0 0.0 0.00 0.00 0.00 100 1014.0
20260507054547 32 298 0.0 0.0 0.00 0.00 0.00 100 1014.2
20260507053019 32 298 0.0 0.0 0.00 0.00 0.00 100 1014.2
20260507051515 33 298 0.0 0.0 0.00 0.00 0.00 100 1014.1
20260507050059 33 298 0.0 0.0 0.00 0.00 0.00 100 1014.2
20260507044558 34 298 0.0 0.0 0.00 0.00 0.00 100 1014.1
20260507043052 34 298 0.0 0.0 0.00 0.00 0.00 100 1014.1
20260507041547 35 298 0.0 0.0 0.00 0.00 0.00 100 1014.3
20260507040041 35 298 0.0 0.0 0.00 0.00 0.00 100 1014.2
20260507034538 35 298 0.0 0.0 0.00 0.00 0.00 100 1014.3
20260507033034 35 298 0.0 0.0 0.00 0.00 0.00 100 1014.4
20260507031528 34 298 0.0 0.0 0.00 0.00 0.00 100 1014.5
20260507030021 34 298 0.0 0.0 0.00 0.00 0.00 100 1014.5
20260507024513 34 298 0.0 0.0 0.00 0.00 0.00 100 1014.4
20260507023003 36 298 0.0 0.0 0.00 0.00 0.00 11 1014.5
20260507021558 39 286 0.0 0.0 0.00 0.00 0.00 100 1014.4
20260507020115 38 286 0.0 0.0 0.00 0.00 0.00 100 1014.3
20260507014557 39 286 0.0 0.0 0.00 0.00 0.00 100 1014.2
20260507013045 38 286 0.0 0.0 0.00 0.00 0.00 100 1014.1
20260507011542 38 282 0.0 0.0 0.00 0.00 0.00 8 1014.1
20260507010034 38 283 0.0 0.0 0.00 0.00 0.00 17 1013.9
20260507004521 38 281 0.0 3.5 0.00 0.00 0.00 27 1013.9
20260507003016 39 246 0.0 0.0 0.00 0.00 0.00 47 1013.7
20260507001516 39 161 0.0 3.5 0.00 0.00 0.00 53 1013.8
20260507000008 39 229 0.0 0.9 0.00 0.00 0.00 54 1013.5
20260506234503 39 211 0.0 4.3 0.00 0.00 0.00 54 1013.7
20260506233100 40 234 0.0 5.2 0.00 0.00 0.00 54 1013.6
20260506233000 40 232 0.0 5.2 0.00 0.00 0.00 54 1013.5